Home   Weather   Bretten   Past weeks

Flag for Germany Past Weather in Bretten, Baden-Württemberg, Germany — Yesterday and Last 2 Weeks

Now
59 °F

Scattered showers. Partly cloudy.


Feels Like: 58 °F
Forecast: 51 / 60 °F
Wind: 6 mph from Southeast

Location: Karlsruhe - Baden Wurttemberg

Current Time: Oct 1, 2016 at 7:02:57 AM

Latest Report: Oct 1, 2016 at 6:20 AM


Visibility: N/A

Pressure: 29.83 "Hg

Humidity: 94%

Dew Point: 57 °F

Location of BrettenLocation

Past Weather in Bretten — Graph

°F

Bretten Temperature Yesterday

Maximum temperature yesterday: 73 °F (at 2:50 PM)
Minimum temperature yesterday: 57 °F (at 10:50 PM)
Average temperature yesterday: 65 °F

High & Low Weather Summary for the Past Weeks

 TemperatureHumidityPressure
High79 °F (Sep 25, 5:20 PM)100% (Sep 16, 10:50 PM)30.42 "Hg (Sep 16, 10:50 PM)
Low39 °F (Sep 22, 7:50 AM)36% (Sep 29, 6:20 PM)29.86 "Hg (Oct 1, 5:50 AM)
Average61 °F78%30.12 "Hg
* Reported Sep 16 5:20 AM — Oct 1 5:50 AM, Bretten, Weather by CustomWeather, © 2016

Note: Actual official high and low records may vary slightly from our data, if they occured in-between our weather recording intervals... More about our weather records

Advertising

Bretten Weather History for the Previous 24 Hours

Scroll right to see more
 ConditionsComfort  
Time TempWeatherWind HumidityBarometerVisibility
5:50 AM
Sat, Oct 1
59 °FLight rain. Partly cloudy.3 mph100%29.86 "Hg6 mi
5:20 AM59 °FRain. Fog.2 mph94%29.89 "Hg3 mi
4:50 AM59 °FFog.2 mph100%29.89 "Hg3 mi
11:20 PM
Fri, Sep 30
57 °FClear.No wind94%29.95 "Hg10 mi
10:50 PM57 °FClear.3 mph100%29.98 "Hg10 mi
10:20 PM59 °FClear.2 mph94%29.98 "Hg10 mi
9:50 PM59 °FClear.3 mph94%29.98 "Hg10 mi
9:20 PM61 °FClear.3 mph88%29.98 "Hg10 mi
8:50 PM61 °FClear.3 mph88%29.98 "Hg10 mi
8:20 PM61 °FClear.3 mph88%29.98 "Hg10 mi
7:50 PM63 °FClear.3 mph83%29.98 "Hg10 mi
7:20 PM64 °FClear.2 mph73%29.98 "Hg10 mi
6:50 PM64 °FSunny.3 mph78%29.98 "Hg10 mi
6:20 PM70 °FSunny.No wind64%29.98 "Hg10 mi
5:50 PM68 °FPassing clouds.6 mph64%29.98 "HgN/A
5:20 PM70 °FSunny.8 mph60%29.98 "Hg10 mi
4:50 PM72 °FPassing clouds.6 mph57%29.98 "HgN/A
4:20 PM72 °FPassing clouds.7 mph53%29.98 "HgN/A
3:50 PM72 °FPassing clouds.9 mph53%29.98 "HgN/A
3:20 PM72 °FPassing clouds.10 mph53%29.98 "HgN/A
2:50 PM73 °FSunny.13 mph50%29.98 "Hg10 mi
2:20 PM72 °FSunny.9 mph50%30.01 "Hg10 mi
1:50 PM72 °FPassing clouds.9 mph50%30.01 "HgN/A
1:20 PM72 °FSunny.13 mph50%30.01 "Hg10 mi
12:50 PM72 °FSunny.15 mph47%30.01 "Hg10 mi
12:20 PM72 °FSunny.15 mph50%30.01 "Hg10 mi
11:50 AM68 °FSunny.13 mph53%30.01 "Hg10 mi
11:20 AM66 °FSunny.13 mph56%30.01 "Hg10 mi
10:50 AM66 °FSunny.10 mph56%30.01 "Hg10 mi
10:20 AM64 °FSunny.12 mph60%30.01 "Hg10 mi
9:50 AM64 °FSunny.10 mph56%30.01 "Hg10 mi
9:20 AM64 °FSunny.8 mph56%29.98 "Hg10 mi
8:50 AM64 °FSunny.8 mph56%29.98 "Hg10 mi
8:20 AM63 °FSunny.10 mph59%29.98 "Hg10 mi
7:50 AM63 °FSunny.9 mph59%29.98 "Hg10 mi
7:20 AM63 °FClear.10 mph59%29.98 "Hg10 mi
Weather by CustomWeather, © 2016

See weather overviewHow to use our weather pages